Time,TemperatureF,DewpointF,PressureIn,WindDirection,WindDirectionDegrees,WindSpeedMPH,WindSpeedGustMPH,Humidity,HourlyPrecipIn,Conditions,Clouds,dailyrainin,SoftwareType,DateUTC
2013-06-01 00:12:00,67.3,63.0,29.92,SSW,210,0.0,-999.0,87,-99.99,,,0.00,weatherlink.com 1.10,2013-06-01 04:12:00,
2013-06-01 00:27:00,66.6,63.0,29.92,SSW,210,0.0,-999.0,89,-99.99,,,0.00,weatherlink.com 1.10,2013-06-01 04:27:00,
2013-06-01 00:42:00,66.5,63.0,29.92,SSW,210,0.0,-999.0,89,-99.99,,,0.00,weatherlink.com 1.10,2013-06-01 04:42:00,
2013-06-01 00:57:00,66.2,63.0,29.91,SSW,210,0.0,-999.0,90,-99.99,,,0.00,weatherlink.com 1.10,2013-06-01 04:57:00,
2013-06-01 01:12:00,65.9,63.0,29.91,SSW,210,0.0,-999.0,90,-99.99,,,0.00,weatherlink.com 1.10,2013-06-01 05:12:00,
2013-06-01 01:27:00,65.6,63.0,29.91,SSW,210,0.0,-999.0,91,-99.99,,,0.00,weatherlink.com 1.10,2013-06-01 05:27:00,
2013-06-01 01:42:00,65.2,63.0,29.91,SSW,210,0.0,-999.0,91,-99.99,,,0.00,weatherlink.com 1.10,2013-06-01 05:42:00,
2013-06-01 01:57:00,64.8,63.0,29.91,SSW,210,0.0,-999.0,92,-99.99,,,0.00,weatherlink.com 1.10,2013-06-01 05:57:00,
2013-06-01 02:12:00,64.2,62.0,29.91,SSW,210,0.0,-999.0,92,-99.99,,,0.00,weatherlink.com 1.10,2013-06-01 06:12:00,
2013-06-01 02:27:00,64.1,62.0,29.90,SSW,210,0.0,-999.0,93,-99.99,,,0.00,weatherlink.com 1.10,2013-06-01 06:27:00,
2013-06-01 02:42:00,63.8,62.0,29.90,SSW,210,0.0,-999.0,93,-99.99,,,0.00,weatherlink.com 1.10,2013-06-01 06:42:00,
2013-06-01 02:57:00,63.3,61.0,29.90,SSW,210,0.0,-999.0,93,-99.99,,,0.00,weatherlink.com 1.10,2013-06-01 06:57:00,
2013-06-01 03:12:00,63.2,62.0,29.90,SSW,210,0.0,-999.0,94,-99.99,,,0.00,weatherlink.com 1.10,2013-06-01 07:12:00,
2013-06-01 03:27:00,63.2,62.0,29.90,SSW,210,0.0,-999.0,94,-99.99,,,0.00,weatherlink.com 1.10,2013-06-01 07:27:00,
2013-06-01 03:42:00,63.0,61.0,29.90,SSW,210,0.0,-999.0,94,-99.99,,,0.00,weatherlink.com 1.10,2013-06-01 07:42:00,
2013-06-01 03:57:00,62.8,61.0,29.90,SSW,210,0.0,-999.0,95,-99.99,,,0.00,weatherlink.com 1.10,2013-06-01 07:57:00,
2013-06-01 04:12:00,62.7,61.0,29.90,SSW,210,0.0,-999.0,95,-99.99,,,0.00,weatherlink.com 1.10,2013-06-01 08:12:00,
2013-06-01 04:27:00,62.2,61.0,29.90,SSW,210,0.0,-999.0,95,-99.99,,,0.00,weatherlink.com 1.10,2013-06-01 08:27:00,
2013-06-01 04:42:00,62.3,61.0,29.90,SSW,210,0.0,-999.0,95,-99.99,,,0.00,weatherlink.com 1.10,2013-06-01 08:42:00,
2013-06-01 04:57:00,61.6,60.0,29.91,SSW,210,0.0,-999.0,95,-99.99,,,0.00,weatherlink.com 1.10,2013-06-01 08:57:00,
2013-06-01 05:12:00,61.6,60.0,29.90,North,360,0.0,-999.0,95,-99.99,,,0.00,weatherlink.com 1.10,2013-06-01 09:12:00,
2013-06-01 05:27:00,62.1,61.0,29.90,West,271,2.0,-999.0,96,-99.99,,,0.00,weatherlink.com 1.10,2013-06-01 09:27:00,
2013-06-01 05:42:00,62.3,61.0,29.91,West,271,0.0,-999.0,96,-99.99,,,0.00,weatherlink.com 1.10,2013-06-01 09:42:00,
2013-06-01 05:57:00,62.1,61.0,29.91,West,271,0.0,-999.0,96,-99.99,,,0.00,weatherlink.com 1.10,2013-06-01 09:57:00,
2013-06-01 06:12:00,62.5,61.0,29.91,West,271,0.0,-999.0,96,-99.99,,,0.00,weatherlink.com 1.10,2013-06-01 10:12:00,
2013-06-01 06:27:00,63.2,62.0,29.91,West,266,0.0,-999.0,96,-99.99,,,0.00,weatherlink.com 1.10,2013-06-01 10:27:00,
2013-06-01 06:42:00,64.0,63.0,29.92,NNW,340,0.0,-999.0,96,-99.99,,,0.00,weatherlink.com 1.10,2013-06-01 10:42:00,
2013-06-01 06:58:00,65.2,64.0,29.92,NNE,20,0.0,-999.0,96,-99.99,,,0.00,weatherlink.com 1.10,2013-06-01 10:58:00,
2013-06-01 07:13:00,66.7,65.0,29.92,East,83,0.0,-999.0,95,-99.99,,,0.00,weatherlink.com 1.10,2013-06-01 11:13:00,
2013-06-01 07:28:00,67.8,66.0,29.92,East,83,0.0,-999.0,93,-99.99,,,0.00,weatherlink.com 1.10,2013-06-01 11:28:00,
2013-06-01 07:43:00,69.2,66.0,29.92,SSE,161,0.0,-999.0,90,-99.99,,,0.00,weatherlink.com 1.10,2013-06-01 11:43:00,
2013-06-01 07:58:00,70.7,67.0,29.91,SSE,161,0.0,-999.0,88,-99.99,,,0.00,weatherlink.com 1.10,2013-06-01 11:58:00,
2013-06-01 08:13:00,72.2,68.0,29.92,SSE,160,0.0,-999.0,85,-99.99,,,0.00,weatherlink.com 1.10,2013-06-01 12:13:00,
2013-06-01 08:28:00,74.0,68.0,29.92,SSE,161,0.0,-999.0,82,-99.99,,,0.00,weatherlink.com 1.10,2013-06-01 12:28:00,
2013-06-01 08:43:00,75.6,70.0,29.92,SSE,154,0.0,-999.0,82,-99.99,,,0.00,weatherlink.com 1.10,2013-06-01 12:43:00,
2013-06-01 08:58:00,76.8,70.0,29.92,SE,145,0.0,-999.0,79,-99.99,,,0.00,weatherlink.com 1.10,2013-06-01 12:58:00,
2013-06-01 09:13:00,77.8,69.0,29.92,South,188,0.0,-999.0,75,-99.99,,,0.00,weatherlink.com 1.10,2013-06-01 13:13:00,
2013-06-01 09:28:00,79.1,72.0,29.91,ENE,75,0.0,-999.0,78,-99.99,,,0.00,weatherlink.com 1.10,2013-06-01 13:28:00,
2013-06-01 09:43:00,80.2,70.0,29.91,ENE,76,3.0,-999.0,72,-99.99,,,0.00,weatherlink.com 1.10,2013-06-01 13:43:00,
2013-06-01 09:58:00,81.1,72.0,29.90,SE,139,0.0,-999.0,73,-99.99,,,0.00,weatherlink.com 1.10,2013-06-01 13:58:00,
2013-06-01 10:13:00,82.3,72.0,29.89,ENE,64,0.0,-999.0,72,-99.99,,,0.00,weatherlink.com 1.10,2013-06-01 14:13:00,
2013-06-01 10:28:00,82.5,71.0,29.88,South,176,4.0,-999.0,68,-99.99,,,0.00,weatherlink.com 1.10,2013-06-01 14:28:00,
2013-06-01 10:44:00,82.6,72.0,29.88,ENE,74,3.0,-999.0,70,-99.99,,,0.00,weatherlink.com 1.10,2013-06-01 14:44:00,
2013-06-01 10:59:00,84.1,71.0,29.87,SSW,210,6.0,-999.0,64,-99.99,,,0.00,weatherlink.com 1.10,2013-06-01 14:59:00,
2013-06-01 11:14:00,84.6,69.0,29.87,South,191,5.0,-999.0,59,-99.99,,,0.00,weatherlink.com 1.10,2013-06-01 15:14:00,
2013-06-01 11:29:00,85.6,67.0,29.86,South,183,4.0,-999.0,54,-99.99,,,0.00,weatherlink.com 1.10,2013-06-01 15:29:00,
2013-06-01 11:44:00,85.8,68.0,29.86,SSW,198,6.0,-999.0,56,-99.99,,,0.00,weatherlink.com 1.10,2013-06-01 15:44:00,
2013-06-01 11:59:00,86.9,65.0,29.86,South,184,6.0,-999.0,48,-99.99,,,0.00,weatherlink.com 1.10,2013-06-01 15:59:00,
2013-06-01 12:14:00,87.5,66.0,29.85,SSW,198,7.0,-999.0,49,-99.99,,,0.00,weatherlink.com 1.10,2013-06-01 16:14:00,
2013-06-01 12:29:00,88.1,68.0,29.85,SSW,200,0.0,-999.0,51,-99.99,,,0.00,weatherlink.com 1.10,2013-06-01 16:29:00,
2013-06-01 12:44:00,88.5,66.0,29.84,South,170,2.0,-999.0,48,-99.99,,,0.00,weatherlink.com 1.10,2013-06-01 16:44:00,
2013-06-01 12:59:00,88.2,65.0,29.84,SW,222,0.0,-999.0,47,-99.99,,,0.00,weatherlink.com 1.10,2013-06-01 16:59:00,
2013-06-01 13:14:00,88.3,68.0,29.84,SSW,201,0.0,-999.0,51,-99.99,,,0.00,weatherlink.com 1.10,2013-06-01 17:14:00,
2013-06-01 13:29:00,88.2,66.0,29.83,SSW,210,0.0,-999.0,48,-99.99,,,0.00,weatherlink.com 1.10,2013-06-01 17:29:00,
2013-06-01 13:44:00,88.6,65.0,29.83,South,177,0.0,-999.0,46,-99.99,,,0.00,weatherlink.com 1.10,2013-06-01 17:44:00,
2013-06-01 13:59:00,88.0,67.0,29.84,WNW,286,8.0,-999.0,50,-99.99,,,0.00,weatherlink.com 1.10,2013-06-01 17:59:00,
2013-06-01 14:14:00,88.2,63.0,29.83,SW,220,6.0,-999.0,43,-99.99,,,0.00,weatherlink.com 1.10,2013-06-01 18:14:00,
2013-06-01 14:29:00,88.0,65.0,29.83,West,265,0.0,-999.0,46,-99.99,,,0.00,weatherlink.com 1.10,2013-06-01 18:29:00,
2013-06-01 14:44:00,87.9,65.0,29.82,SSW,205,5.0,-999.0,47,-99.99,,,0.00,weatherlink.com 1.10,2013-06-01 18:44:00,
2013-06-01 14:59:00,88.6,63.0,29.81,WNW,292,12.0,-999.0,43,-99.99,,,0.00,weatherlink.com 1.10,2013-06-01 18:59:00,
2013-06-01 15:14:00,88.6,67.0,29.80,SW,219,3.0,-999.0,49,-99.99,,,0.00,weatherlink.com 1.10,2013-06-01 19:14:00,
2013-06-01 15:29:00,89.4,67.0,29.81,North,349,0.0,-999.0,48,-99.99,,,0.00,weatherlink.com 1.10,2013-06-01 19:29:00,
2013-06-01 15:44:00,88.1,67.0,29.80,SSW,199,7.0,-999.0,49,-99.99,,,0.00,weatherlink.com 1.10,2013-06-01 19:44:00,
2013-06-01 15:59:00,87.6,65.0,29.81,WNW,294,13.0,-999.0,47,-99.99,,,0.00,weatherlink.com 1.10,2013-06-01 19:59:00,
2013-06-01 16:14:00,85.7,64.0,29.81,SW,221,0.0,-999.0,48,-99.99,,,0.00,weatherlink.com 1.10,2013-06-01 20:14:00,
2013-06-01 16:29:00,84.9,64.0,29.81,SW,233,0.0,-999.0,50,-99.99,,,0.00,weatherlink.com 1.10,2013-06-01 20:29:00,
2013-06-01 16:44:00,84.4,66.0,29.81,WSW,251,0.0,-999.0,54,-99.99,,,0.00,weatherlink.com 1.10,2013-06-01 20:44:00,
2013-06-01 16:59:00,84.0,69.0,29.81,WSW,250,0.0,-999.0,60,-99.99,,,0.00,weatherlink.com 1.10,2013-06-01 20:59:00,
2013-06-01 17:14:00,81.4,68.0,29.81,NW,325,0.0,-999.0,64,-99.99,,,0.00,weatherlink.com 1.10,2013-06-01 21:14:00,
2013-06-01 17:29:00,81.7,68.0,29.80,WNW,299,0.0,-999.0,64,-99.99,,,0.00,weatherlink.com 1.10,2013-06-01 21:29:00,
2013-06-01 17:44:00,82.2,72.0,29.80,South,188,0.0,-999.0,71,-99.99,,,0.00,weatherlink.com 1.10,2013-06-01 21:44:00,
2013-06-01 17:59:00,83.8,71.0,29.79,South,188,0.0,-999.0,66,-99.99,,,0.00,weatherlink.com 1.10,2013-06-01 21:59:00,
2013-06-01 18:14:00,84.6,67.0,29.79,SSW,203,2.0,-999.0,56,-99.99,,,0.00,weatherlink.com 1.10,2013-06-01 22:14:00,
2013-06-01 18:29:00,85.3,67.0,29.79,SSW,202,3.0,-999.0,54,-99.99,,,0.00,weatherlink.com 1.10,2013-06-01 22:29:00,
2013-06-01 18:44:00,85.3,67.0,29.79,South,183,0.0,-999.0,54,-99.99,,,0.00,weatherlink.com 1.10,2013-06-01 22:44:00,
2013-06-01 18:59:00,85.0,68.0,29.78,SSW,192,0.0,-999.0,56,-99.99,,,0.00,weatherlink.com 1.10,2013-06-01 22:59:00,
2013-06-01 19:14:00,83.4,67.0,29.78,SSW,193,0.0,-999.0,57,-99.99,,,0.00,weatherlink.com 1.10,2013-06-01 23:14:00,
2013-06-01 19:29:00,82.4,67.0,29.78,SSW,197,0.0,-999.0,60,-99.99,,,0.00,weatherlink.com 1.10,2013-06-01 23:29:00,
2013-06-01 19:44:00,80.4,66.0,29.78,SSW,197,0.0,-999.0,62,-99.99,,,0.00,weatherlink.com 1.10,2013-06-01 23:44:00,
2013-06-01 19:59:00,79.6,67.0,29.79,SSW,197,2.0,-999.0,65,-99.99,,,0.00,weatherlink.com 1.10,2013-06-01 23:59:00,
2013-06-01 20:14:00,78.4,67.0,29.79,SSW,197,0.0,-999.0,67,-99.99,,,0.00,weatherlink.com 1.10,2013-06-02 00:14:00,
2013-06-01 20:29:00,77.1,67.0,29.79,SSW,197,0.0,-999.0,70,-99.99,,,0.00,weatherlink.com 1.10,2013-06-02 00:29:00,
2013-06-01 20:44:00,76.3,68.0,29.79,SSW,197,0.0,-999.0,75,-99.99,,,0.00,weatherlink.com 1.10,2013-06-02 00:44:00,
2013-06-01 20:59:00,75.9,67.0,29.79,SSW,197,0.0,-999.0,75,-99.99,,,0.00,weatherlink.com 1.10,2013-06-02 00:59:00,
2013-06-01 21:15:00,74.8,66.0,29.79,SSW,197,0.0,-999.0,75,-99.99,,,0.00,weatherlink.com 1.10,2013-06-02 01:15:00,
2013-06-01 21:30:00,73.9,67.0,29.80,SSW,197,0.0,-999.0,79,-99.99,,,0.00,weatherlink.com 1.10,2013-06-02 01:30:00,
2013-06-01 21:45:00,72.9,67.0,29.80,SSW,197,0.0,-999.0,81,-99.99,,,0.00,weatherlink.com 1.10,2013-06-02 01:45:00,
2013-06-01 22:00:00,72.4,66.0,29.80,SSW,197,0.0,-999.0,81,-99.99,,,0.00,weatherlink.com 1.10,2013-06-02 02:00:00,
2013-06-01 22:15:00,71.9,67.0,29.80,SSW,197,0.0,-999.0,83,-99.99,,,0.00,weatherlink.com 1.10,2013-06-02 02:15:00,
2013-06-01 22:34:00,71.2,66.0,29.80,SSW,197,0.0,-999.0,84,-99.99,,,0.00,weatherlink.com 1.10,2013-06-02 02:34:00,
2013-06-01 22:49:00,71.5,67.0,29.80,SSW,197,0.0,-999.0,84,-99.99,,,0.00,weatherlink.com 1.10,2013-06-02 02:49:00,
2013-06-01 23:04:00,71.0,66.0,29.80,SSW,197,0.0,-999.0,85,-99.99,,,0.00,weatherlink.com 1.10,2013-06-02 03:04:00,
2013-06-01 23:19:00,70.6,66.0,29.80,SSW,197,0.0,-999.0,86,-99.99,,,0.00,weatherlink.com 1.10,2013-06-02 03:19:00,
2013-06-01 23:34:00,70.2,66.0,29.80,SSW,197,0.0,-999.0,87,-99.99,,,0.00,weatherlink.com 1.10,2013-06-02 03:34:00,
2013-06-01 23:49:00,70.1,66.0,29.80,SSW,197,2.0,-999.0,87,-99.99,,,0.00,weatherlink.com 1.10,2013-06-02 03:49:00,